Weather in Bor

Russia / Krasnoyarsk Krai     61°35′40″N   90°01′40″E
temp.,
°C
wind,
m/s
gust,
m/s
humid.,
%
clouds,
%
prec.,
mm/h
press.,
hPa
HPBL,
m
20 april, tue
tue2001:00−11w41195100 2.1 1008539
04:00−11wsw3995100 3.3 1009495
07:00−10nw41195100 6.4 1009517
10:00−10nw4892100 1.6 1010565
13:00−7nw4691100 2.6 1011766
16:00−6nw4791100 1.0 1012797
19:00−6nw4991100 1.4 1014659
22:00−7nw4109398 0.3 1015521
21 april, wed
wed2101:00−8wnw3109596 0.5 1016432
04:00−9wnw3896100 0.4 1018319
07:00−9nw2695100 0.8 1021262
10:00−5nw2390100 0.3 1023445
13:00−2nnw2385100 0.4 1024758
16:000nnw358587 0.1 1026892
19:00−1nw37909 0.2 1029548
22:00−7nw259864 0.0 103273
22 april, thu
thu2201:00−7nw159654 0.0 1034114
04:00−15nw1110086 0.0 10379
07:00−11nw129783 0.0 103984
10:00−4nnw25835 0.0 1040494
13:00−1nw23808 0.0 1041883
16:000nw247765 0.0 10421007
19:000wnw11865 0.0 104349
22:00−9ssw11965 0.0 104510
23 april, fri
fri2301:00−12ssw119866 0.0 104610
04:00−13ssw119895 0.0 104711
07:00−8sw12945 0.0 104769
10:00−1wsw239055 0.0 1047497
13:00+1wsw238591 0.0 1047852
16:00+3sw238372 0.0 1046926
19:00+2sse119910 0.0 104522
22:00−6sse119812 0.0 104610
24 april, sat
sat2401:00−8sse119850 0.0 104610
04:00−9ese119850 0.0 104510
07:00−4e01926 0.0 104438
10:00+2e12885 0.0 1042377
13:00+5e127841 0.0 1039803
16:00+6ne117142 0.0 1037866
19:00+3nne1196100 0.0 103610
22:00−2e1198100 0.0 103511